Location: Melbourne
(37.8666°S, 145.1333°E)
Time: 04:07:00
(UTC+10:00)

Hubble Space Telescope - Visible Passes

Search period start: 30 June 2016 00:00
Search period end: 10 July 2016 00:00
Orbit: 539 x 543 km, 28.5° (Epoch: 29 June)

Date Brightness Start Highest point End Pass type
(mag) Time Alt. Az. Time Alt. Az. Time Alt. Az.
04 Jul 3.7 06:53:46 10° N 06:55:24 12° NNE 06:57:02 10° NE visible
05 Jul 3.5 06:43:20 10° NNW 06:45:34 14° NNE 06:47:49 10° NE visible
06 Jul 3.4 06:33:08 10° NNW 06:35:46 16° NNE 06:38:23 10° NE visible
07 Jul 3.2 06:23:04 10° NNW 06:25:57 18° N 06:28:51 10° NE visible
08 Jul 3.0 06:13:05 10° NW 06:16:09 20° N 06:19:14 10° NE visible
09 Jul 2.9 06:03:32 12° NW 06:06:22 21° N 06:09:34 10° NE visible
